Central Park, NY

8:45 AM EDT on June 25, 2018 (GMT -0400)
Central Park

Weather History for KNYC - October, 2004

Change the Weather History Date:

Thursday, October 21, 2004

  Actual Average Record
Temperature  
Mean Temperature 51 °F 55 °F  
Max Temperature 54 °F 62 °F 84 °F (1920)
Min Temperature 48 °F 48 °F 32 °F (1974)
Degree Days  
Heating Degree Days 14 10  
Month to date heating degree days 153  
Since 1 July heating degree days 198  
Cooling Degree Days 0 0  
Month to date cooling degree days 13  
Year to date cooling degree days 1100  
Growing Degree Days 1 (Base 50)    
Moisture  
Dew Point 44 °F    
Average Humidity 78    
Maximum Humidity 86    
Minimum Humidity 71    
Precipitation  
Precipitation 0.00 in 0.14 in 2.17 in (1995)
Month to date precipitation 3.01  
Year to date precipitation 40.53  
Snow  
Snow 0.00 in 0.00 in 0.00 in (2002)
Month to date snowfall 0.0  
Since 1 July snowfall 0.0  
Snow Depth -    
Sea Level Pressure  
Sea Level Pressure 30.17 in    
Wind  
Wind Speed 9 mph (NE)    
Max Wind Speed 14 mph    
Max Gust Speed 20 mph    
Visibility 10 miles    
Events      
T = Trace of Precipitation, MM = Missing Value Source: NWS Daily Summary

Daily Weather History Graph

Daily Weather History Graph

Search for Another Location

Airport or City:

Astronomy

Oct. 21, 2004 Rise Set
Actual Time 7:14 AM EDT 6:06 PM EDT
Civil Twilight 6:46 AM EDT 6:33 PM EDT
Nautical Twilight 6:14 AM EDT 7:05 PM EDT
Astronomical Twilight 5:42 AM EDT 7:37 PM EDT
Moon 3:16 PM EDT (10/21) No Moon Set
Length of Visible Light 11h 47m
Length of Day
10h 51m
First Quarter, 58% of the Moon is Illuminated
Oct 21
First Quarter
Oct 27
Full
Nov 5
Last Quarter
Nov 12
New
Nov 19
First Quarter

Hourly Weather History & Observations

Time (EDT) Temp. Dew Point Humidity Pressure Visibility Wind Dir Wind Speed Gust Speed Precip Events Conditions
12:51 AM 48.9 °F 44.1 °F 83% 30.13 in 10.0 mi ENE 9.2 mph 19.6 mph N/A   Overcast
1:51 AM 48.9 °F 45.0 °F 86% 30.14 in 10.0 mi ENE 8.1 mph - N/A   Overcast
2:51 AM 48.9 °F 44.1 °F 83% 30.14 in 10.0 mi NNE 4.6 mph - N/A   Overcast
3:51 AM 48.0 °F 43.0 °F 83% 30.13 in 10.0 mi Variable 6.9 mph 16.1 mph N/A   Overcast
4:51 AM 48.0 °F 43.0 °F 83% 30.13 in 10.0 mi Variable 6.9 mph - N/A   Overcast
5:51 AM 48.0 °F 43.0 °F 83% 30.14 in 10.0 mi NE 12.7 mph 16.1 mph N/A   Overcast
6:51 AM 48.0 °F 42.1 °F 80% 30.16 in 10.0 mi ENE 8.1 mph - N/A   Overcast
7:51 AM 48.0 °F 43.0 °F 83% 30.17 in 10.0 mi NE 8.1 mph - N/A   Overcast
8:51 AM 48.9 °F 42.1 °F 77% 30.18 in 10.0 mi NE 12.7 mph 19.6 mph N/A   Overcast
9:03 AM 48.2 °F 42.8 °F 82% 30.20 in 10.0 mi NE 8.1 mph - N/A   Overcast
9:51 AM 48.9 °F 43.0 °F 80% 30.18 in 10.0 mi ENE 12.7 mph 17.3 mph N/A   Overcast
10:51 AM 51.1 °F 44.1 °F 77% 30.19 in 10.0 mi ENE 12.7 mph 19.6 mph N/A   Overcast
11:51 AM 51.1 °F 44.1 °F 77% 30.19 in 10.0 mi NE 13.8 mph 17.3 mph N/A   Overcast
12:51 PM 52.0 °F 44.1 °F 74% 30.18 in 10.0 mi NE 10.4 mph - N/A   Overcast
1:51 PM 53.1 °F 45.0 °F 74% 30.17 in 10.0 mi ENE 11.5 mph - N/A   Overcast
2:51 PM 53.1 °F 45.0 °F 74% 30.16 in 10.0 mi NE 9.2 mph - N/A   Overcast
3:51 PM 53.1 °F 45.0 °F 74% 30.16 in 10.0 mi NE 6.9 mph - N/A   Overcast
4:51 PM 54.0 °F 45.0 °F 72% 30.17 in 10.0 mi Variable 6.9 mph - N/A   Overcast
5:51 PM 53.1 °F 45.0 °F 74% 30.17 in 10.0 mi Variable 4.6 mph - N/A   Overcast
6:51 PM 53.1 °F 44.1 °F 71% 30.18 in 10.0 mi Variable 5.8 mph - N/A   Overcast
7:51 PM 53.1 °F 44.1 °F 71% 30.19 in 10.0 mi NE 9.2 mph 17.3 mph N/A   Overcast
8:51 PM 52.0 °F 45.0 °F 77% 30.20 in 10.0 mi NE 8.1 mph - N/A   Overcast
9:51 PM 52.0 °F 45.0 °F 77% 30.20 in 10.0 mi NE 9.2 mph - N/A   Overcast
10:51 PM 51.1 °F 43.0 °F 74% 30.21 in 10.0 mi NE 11.5 mph - N/A   Overcast
11:51 PM 50.0 °F 43.0 °F 77% 30.22 in 10.0 mi NE 12.7 mph 18.4 mph N/A   Overcast